Location: McFarlands Corners
(41.4117°N, 81.3382°W)
Time: 12:50:51
(UTC+00:00)

Courier 1B Rocket - Pass Details

Date: 23 February 2026
Orbit: 920 x 1201 km, 28.2° (Epoch: 10 March)

Event Time Altitude Azimuth Distance (km) Brightness Sun altitude
Rises 02:33:28 0° 254° (WSW) 3,551 8.5 -38.6°
Reaches altitude 10° 02:36:55 10° 235° (SW) 2,622 7.5 -39.2°
Enters shadow 02:37:33 12° 230° (SW) 2,492 7.3 -39.3°
Maximum altitude 02:40:56 18° 195° (SSW) 2,150 - -39.8°
Drops below altitude 10° 02:45:02 10° 155° (SSE) 2,696 - -40.5°
Sets 02:48:40 0° 137° (SE) 3,693 - -41.1°
